KE8RXN Weather Reports


Display with metric or nautical units.
time (UTC)temp
F
wind
direction
speed
MPH
gust
MPH
rain 1hr
in
rain 24hr
in
rain mn
in
humidity
%
barometer
mb
20260509203435 66 296 3.0 3.0 0.00 0.00 0.00 40 1006.9
20260509202933 66 219 7.0 9.0 0.00 0.00 0.00 39 1007.3
20260509202429 65 244 4.0 8.0 0.00 0.00 0.00 41 1007.3
20260509201924 65 230 4.0 6.0 0.00 0.00 0.00 41 1007.2
20260509201419 65 290 3.0 3.0 0.00 0.00 0.00 42 1007.4
20260509200917 65 323 3.0 3.0 0.00 0.00 0.00 42 1007.3
20260509200417 65 301 3.0 5.0 0.00 0.00 0.00 41 1007.3
20260509195914 65 250 3.0 3.0 0.00 0.00 0.00 41 1007.2
20260509195409 65 247 3.0 5.0 0.00 0.00 0.00 42 1007.3
20260509194909 64 245 3.0 3.0 0.00 0.00 0.00 42 1007.3
20260509194405 64 25 5.0 8.0 0.00 0.00 0.00 45 1007.4
20260509193901 64 309 3.0 3.0 0.00 0.00 0.00 46 1007.3
20260509193356 64 228 5.0 6.0 0.00 0.00 0.00 47 1007.4
20260509192852 63 247 3.0 3.0 0.00 0.00 0.00 48 1007.4
20260509192348 63 274 3.0 5.0 0.00 0.00 0.00 48 1007.3
20260509191844 63 303 4.0 6.0 0.00 0.00 0.00 49 1007.0
20260509191340 62 239 5.0 6.0 0.00 0.00 0.00 49 1007.0
20260509190836 62 225 3.0 5.0 0.00 0.00 0.00 51 1007.0
20260509190333 61 294 3.0 3.0 0.00 0.00 0.00 51 1007.2
20260509185830 61 172 5.0 6.0 0.00 0.00 0.00 50 1007.2
20260509185327 62 237 6.0 6.0 0.00 0.00 0.00 51 1007.2
20260509184825 62 248 6.0 8.0 0.00 0.00 0.00 50 1007.3
20260509184321 61 236 5.0 5.0 0.00 0.00 0.00 51 1007.0
20260509183818 60 331 3.0 7.0 0.00 0.00 0.00 54 1007.0
20260509183313 60 293 2.0 3.0 0.00 0.00 0.00 54 1006.9
20260509182809 59 259 3.0 5.0 0.00 0.00 0.00 56 1006.9
20260509182307 57 249 3.0 3.0 0.00 0.00 0.00 60 1007.0
20260509181803 57 225 7.0 8.0 0.00 0.00 0.00 61 1006.8
20260509181301 57 240 4.0 6.0 0.00 0.00 0.00 64 1007.2
20260509180758 57 295 5.0 6.0 0.00 0.00 0.00 63 1007.0
20260509180254 58 240 8.0 10.0 0.00 0.00 0.00 66 1007.2
20260509175750 58 218 9.0 10.0 0.00 0.00 0.00 62 1007.2
20260509175247 59 296 3.0 3.0 0.00 0.00 0.00 60 1007.3
20260509174743 59 285 2.0 2.0 0.00 0.00 0.00 62 1006.9
20260509174238 58 235 5.0 6.0 0.00 0.00 0.00 62 1006.7
20260509173735 58 337 1.0 2.0 0.00 0.00 0.00 63 1006.4
20260509173231 58 224 4.0 7.0 0.00 0.00 0.00 64 1006.5
20260509172727 58 262 3.0 3.0 0.00 0.00 0.00 64 1006.5
20260509172223 59 175 4.0 6.0 0.00 0.00 0.00 62 1006.3
20260509171718 59 210 7.0 10.0 0.00 0.00 0.00 61 1006.6
20260509171215 58 342 3.0 6.0 0.00 0.00 0.00 65 1006.7
20260509170712 57 218 4.0 6.0 0.00 0.00 0.00 64 1006.8
20260509170208 56 242 4.0 7.0 0.00 0.00 0.00 68 1007.4
20260509165707 55 217 1.0 1.0 0.00 0.00 0.00 71 1007.4
20260509165202 55 37 0.0 0.0 0.00 0.00 0.00 75 1007.6
20260509164658 55 221 3.0 3.0 0.00 0.00 0.00 71 1007.7
20260509164154 55 14 1.0 1.0 0.00 0.00 0.00 73 1007.9
20260509163652 55 19 0.0 1.0 0.00 0.00 0.00 72 1007.9
20260509163148 55 315 1.0 1.0 0.00 0.00 0.00 71 1008.0
20260509162645 55 320 2.0 2.0 0.00 0.00 0.00 72 1008.2
20260509162141 55 271 3.0 3.0 0.00 0.00 0.00 72 1007.9
20260509161637 55 298 2.0 2.0 0.00 0.00 0.00 71 1008.1
20260509161132 55 347 3.0 3.0 0.00 0.00 0.00 72 1007.6
20260509160628 55 297 3.0 3.0 0.00 0.00 0.00 71 1007.5
20260509160124 56 308 4.0 5.0 0.00 0.00 0.00 71 1007.7
20260509155621 56 305 3.0 3.0 0.00 0.00 0.00 71 1007.6
20260509155117 56 282 3.0 3.0 0.00 0.00 0.00 71 1007.3
20260509154612 57 282 4.0 6.0 0.00 0.00 0.00 71 1007.0
20260509154110 57 292 5.0 8.0 0.00 0.00 0.00 72 1007.4
20260509153607 58 241 6.0 8.0 0.00 0.00 0.00 72 1007.0
20260509153104 58 320 2.0 2.0 0.00 0.00 0.00 73 1006.6
20260509152600 58 305 4.0 6.0 0.00 0.00 0.00 73 1006.4
20260509152057 59 346 8.0 11.0 0.00 0.00 0.00 71 1006.4
20260509151553 59 325 3.0 5.0 0.00 0.00 0.00 71 1006.0
20260509151051 59 254 3.0 5.0 0.00 0.00 0.00 71 1005.9
20260509150548 60 240 7.0 8.0 0.00 0.00 0.00 70 1006.1
20260509150047 60 291 5.0 7.0 0.00 0.00 0.00 70 1005.9
20260509145542 60 225 9.0 14.0 0.00 0.00 0.00 71 1005.9
20260509145037 60 313 5.0 8.0 0.00 0.00 0.00 71 1005.5
20260509144534 60 263 5.0 8.0 0.00 0.00 0.00 72 1005.4
20260509144032 60 276 5.0 7.0 0.00 0.00 0.00 73 1005.5
20260509143529 60 248 4.0 5.0 0.00 0.00 0.00 72 1005.4
20260509143027 60 248 5.0 6.0 0.00 0.00 0.00 73 1005.5
20260509142522 60 233 6.0 9.0 0.00 0.00 0.00 72 1005.6
20260509142017 60 311 3.0 6.0 0.00 0.00 0.00 73 1005.3
20260509141514 59 255 6.0 8.0 0.00 0.00 0.00 74 1005.3
20260509141011 60 252 10.0 14.0 0.00 0.00 0.00 73 1005.2
20260509140508 60 220 7.0 7.0 0.00 0.00 0.00 73 1005.4
20260509140006 60 188 14.0 18.0 0.00 0.00 0.00 73 1005.5
20260509135503 59 233 7.0 9.0 0.00 0.00 0.00 74 1005.6
20260509135000 59 277 3.0 3.0 0.00 0.00 0.00 75 1005.5
20260509134457 60 239 8.0 13.0 0.00 0.00 0.00 74 1005.4
20260509133955 59 290 3.0 6.0 0.00 0.00 0.00 75 1005.5
20260509133451 60 257 5.0 8.0 0.00 0.00 0.00 74 1005.5
20260509132949 59 207 7.0 11.0 0.00 0.00 0.00 74 1005.5
20260509132447 60 305 7.0 9.0 0.00 0.00 0.00 73 1005.5
20260509131944 59 248 8.0 11.0 0.00 0.00 0.00 74 1005.5
20260509131441 59 221 8.0 10.0 0.00 0.00 0.00 74 1005.2
20260509130938 59 254 7.0 8.0 0.00 0.00 0.00 75 1005.3
20260509130433 58 169 3.0 5.0 0.00 0.00 0.00 77 1005.2
20260509125930 58 238 6.0 7.0 0.00 0.00 0.00 78 1005.4
20260509125427 57 218 4.0 6.0 0.00 0.00 0.00 80 1005.4
20260509124923 57 231 7.0 9.0 0.00 0.00 0.00 81 1005.7
20260509124420 57 248 4.0 5.0 0.00 0.00 0.00 81 1005.5
20260509123918 56 221 6.0 8.0 0.00 0.00 0.00 82 1005.6
20260509123415 55 254 4.0 5.0 0.00 0.00 0.00 83 1005.7
20260509122910 55 232 3.0 5.0 0.00 0.00 0.00 84 1005.7
20260509122408 55 213 4.0 10.0 0.00 0.00 0.00 84 1005.7
20260509121904 55 213 7.0 10.0 0.00 0.00 0.00 84 1005.8
20260509121401 55 238 4.0 5.0 0.00 0.00 0.00 84 1005.7
20260509120900 55 213 5.0 7.0 0.00 0.00 0.00 83 1005.7
20260509120357 55 221 4.0 6.0 0.00 0.00 0.00 84 1005.8
20260509115855 55 259 5.0 7.0 0.00 0.00 0.00 85 1005.4
20260509115352 55 220 9.0 11.0 0.00 0.00 0.00 84 1005.5
20260509114850 55 220 4.0 7.0 0.00 0.00 0.00 84 1005.7
20260509114348 54 258 3.0 5.0 0.00 0.00 0.00 84 1005.5
20260509113847 54 238 4.0 5.0 0.00 0.00 0.00 85 1005.5
20260509113344 54 32 0.0 1.0 0.00 0.00 0.00 85 1005.4
20260509112840 54 208 5.0 6.0 0.00 0.00 0.00 85 1005.4
20260509112337 54 227 3.0 3.0 0.00 0.00 0.00 85 1005.4
20260509111835 54 174 1.0 2.0 0.00 0.00 0.00 85 1005.3
20260509111331 54 213 4.0 7.0 0.00 0.00 0.00 86 1005.6
20260509110829 54 225 3.0 5.0 0.00 0.00 0.00 86 1005.3
20260509110325 53 13 0.0 1.0 0.00 0.00 0.00 87 1005.4
20260509105823 54 202 3.0 5.0 0.00 0.00 0.00 87 1005.5
20260509105321 53 232 3.0 6.0 0.00 0.00 0.00 87 1005.6
20260509104817 53 215 3.0 7.0 0.00 0.00 0.00 88 1005.6
20260509104314 53 224 3.0 3.0 0.00 0.00 0.00 88 1005.3
20260509103812 53 240 4.0 6.0 0.00 0.00 0.00 89 1005.5
20260509103309 53 224 2.0 2.0 0.00 0.00 0.00 88 1005.8
20260509102808 53 243 3.0 6.0 0.00 0.00 0.00 88 1005.7
20260509102306 53 229 5.0 7.0 0.00 0.00 0.00 88 1005.8
20260509101801 53 32 1.0 2.0 0.00 0.00 0.00 88 1005.7
20260509101257 53 257 2.0 2.0 0.00 0.00 0.00 88 1005.9
20260509100755 53 214 6.0 8.0 0.00 0.00 0.00 88 1006.0
20260509100252 53 13 1.0 2.0 0.00 0.00 0.00 88 1005.9
20260509095748 53 210 5.0 6.0 0.00 0.00 0.00 88 1006.0
20260509095246 53 124 1.0 1.0 0.00 0.00 0.00 88 1006.2
20260509094743 53 1 1.0 1.0 0.00 0.00 0.00 88 1006.4
20260509094239 53 203 3.0 5.0 0.00 0.00 0.00 88 1006.4
20260509093737 53 117 2.0 2.0 0.00 0.00 0.00 88 1006.5
20260509093234 53 235 2.0 2.0 0.00 0.00 0.00 88 1006.4
20260509092733 53 230 2.0 2.0 0.00 0.00 0.00 88 1006.4
20260509092230 53 231 4.0 6.0 0.00 0.00 0.00 88 1006.2
20260509091728 53 22 2.0 2.0 0.00 0.00 0.00 87 1006.3
20260509091224 53 287 1.0 2.0 0.00 0.00 0.00 87 1006.4
20260509090722 53 232 4.0 6.0 0.00 0.00 0.00 87 1006.6
20260509090219 53 164 2.0 2.0 0.00 0.00 0.00 87 1006.4
20260509085717 53 259 1.0 2.0 0.00 0.00 0.00 87 1006.6
20260509085214 53 218 1.0 2.0 0.00 0.00 0.00 86 1006.5
20260509084710 53 39 0.0 1.0 0.00 0.00 0.00 86 1006.6
20260509084207 53 238 0.0 1.0 0.00 0.00 0.00 86 1006.6
20260509083705 53 189 2.0 2.0 0.00 0.00 0.00 85 1006.6
20260509083201 53 26 0.0 0.0 0.00 0.00 0.00 85 1006.5
20260509082658 53 346 1.0 1.0 0.00 0.00 0.00 85 1006.9
20260509082154 53 189 3.0 5.0 0.00 0.00 0.00 84 1006.9
20260509081651 53 37 3.0 6.0 0.00 0.00 0.00 84 1007.0
20260509081149 52 239 2.0 5.0 0.00 0.00 0.00 84 1007.4
20260509080647 52 186 3.0 3.0 0.00 0.00 0.00 83 1007.4
20260509080144 52 277 1.0 1.0 0.00 0.00 0.00 82 1007.4
20260509075643 52 23 1.0 1.0 0.00 0.00 0.00 82 1007.4
20260509075140 52 40 0.0 0.0 0.00 0.00 0.00 81 1007.4
20260509074637 52 240 5.0 6.0 0.00 0.00 0.00 80 1007.6
20260509074133 52 19 0.0 0.0 0.00 0.00 0.00 79 1007.7
20260509073630 52 217 2.0 5.0 0.00 0.00 0.00 77 1007.5
20260509073126 52 211 3.0 5.0 0.00 0.00 0.00 76 1007.6
20260509072623 52 161 2.0 2.0 0.00 0.00 0.00 75 1007.7
20260509072120 52 203 2.0 2.0 0.00 0.00 0.00 73 1007.8
20260509071616 52 228 6.0 7.0 0.00 0.00 0.00 71 1007.9
20260509071114 52 31 0.0 1.0 0.00 0.00 0.00 69 1007.8
20260509070611 52 198 1.0 2.0 0.00 0.00 0.00 66 1008.1
20260509070107 52 193 1.0 2.0 0.00 0.00 0.00 64 1007.9
20260509065603 52 359 1.0 1.0 0.00 0.00 0.00 62 1007.9
20260509065059 52 34 0.0 1.0 0.00 0.00 0.00 59 1008.1
20260509064556 52 287 2.0 2.0 0.00 0.00 0.00 58 1007.8
20260509064054 52 26 1.0 1.0 0.00 0.00 0.00 55 1008.1
20260509063550 52 221 1.0 2.0 0.00 0.00 0.00 52 1008.2
20260509063047 52 11 0.0 1.0 0.00 0.00 0.00 50 1008.3
20260509062544 52 314 1.0 1.0 0.00 0.00 0.00 49 1008.2
20260509062042 52 44 0.0 1.0 0.00 0.00 0.00 47 1008.4
20260509061538 52 32 0.0 0.0 0.00 0.00 0.00 45 1008.4
20260509061036 52 226 2.0 2.0 0.00 0.00 0.00 44 1008.3
20260509060533 52 345 0.0 1.0 0.00 0.00 0.00 43 1008.5
20260509060023 52 31 2.0 3.0 0.00 0.00 0.00 42 1008.4
20260509055518 52 43 0.0 0.0 0.00 0.00 0.00 41 1008.4
20260509055015 52 45 0.0 1.0 0.00 0.00 0.00 41 1008.5
20260509054512 52 55 0.0 1.0 0.00 0.00 0.00 40 1008.7
20260509054010 52 47 0.0 1.0 0.00 0.00 0.00 41 1008.8
20260509053508 52 48 0.0 0.0 0.00 0.00 0.00 40 1008.7
20260509053005 52 237 1.0 2.0 0.00 0.00 0.00 40 1008.7
20260509052502 52 76 0.0 0.0 0.00 0.00 0.00 40 1008.9
20260509052000 52 277 1.0 1.0 0.00 0.00 0.00 39 1008.8
20260509051458 52 53 0.0 1.0 0.00 0.00 0.00 39 1008.6
20260509050954 52 353 0.0 1.0 0.00 0.00 0.00 39 1008.6
20260509050451 52 55 0.0 0.0 0.00 0.00 0.00 39 1008.8
20260509045947 51 55 0.0 0.0 0.00 0.00 0.00 39 1008.6
20260509045445 51 32 0.0 0.0 0.00 0.00 0.00 39 1008.7
20260509044942 51 38 0.0 0.0 0.00 0.00 0.00 39 1008.6
20260509044440 51 43 0.0 0.0 0.00 0.00 0.00 39 1008.8
20260509043937 51 49 0.0 0.0 0.00 0.00 0.00 39 1008.9
20260509043432 51 58 0.0 0.0 0.00 0.00 0.00 39 1008.7
20260509042928 51 48 0.0 0.0 0.00 0.00 0.00 38 1008.9
20260509042426 51 55 1.0 1.0 0.00 0.00 0.00 38 1009.0
20260509041921 51 41 0.0 0.0 0.00 0.00 0.00 38 1008.8
20260509041418 51 60 1.0 1.0 0.00 0.00 0.00 38 1009.2
20260509040916 51 45 0.0 0.0 0.00 0.00 0.00 38 1009.1
20260509040414 51 46 0.0 0.0 0.00 0.00 0.00 39 1009.0
20260509035911 51 45 0.0 0.0 0.00 0.00 0.00 40 1009.3
20260509035408 51 48 0.0 0.0 0.00 0.00 0.00 39 1009.4
20260509034904 51 51 0.0 0.0 0.00 0.00 0.00 39 1009.3
20260509034402 51 46 0.0 0.0 0.00 0.00 0.00 38 1009.5
20260509033859 51 43 0.0 0.0 0.00 0.00 0.00 38 1009.6
20260509033356 51 46 0.0 0.0 0.00 0.00 0.00 37 1009.4
20260509032852 51 64 0.0 1.0 0.00 0.00 0.00 37 1009.5
20260509032350 51 52 0.0 0.0 0.00 0.00 0.00 37 1009.6
20260509031848 51 45 0.0 0.0 0.00 0.00 0.00 37 1009.6
20260509031344 51 50 0.0 0.0 0.00 0.00 0.00 37 1009.7
20260509030842 51 47 0.0 0.0 0.00 0.00 0.00 37 1009.8
20260509030339 51 53 0.0 0.0 0.00 0.00 0.00 36 1009.8
20260509025831 51 46 0.0 0.0 0.00 0.00 0.00 38 1009.7
20260509025326 51 54 0.0 0.0 0.00 0.00 0.00 37 1010.0
20260509024822 51 48 0.0 0.0 0.00 0.00 0.00 39 1009.9
20260509024318 51 47 0.0 0.0 0.00 0.00 0.00 40 1010.1
20260509023816 51 64 0.0 1.0 0.00 0.00 0.00 39 1010.0
20260509023313 51 47 0.0 0.0 0.00 0.00 0.00 40 1010.1
20260509022809 51 47 0.0 0.0 0.00 0.00 0.00 39 1010.1
20260509022307 51 46 0.0 0.0 0.00 0.00 0.00 42 1010.2
20260509021803 51 45 0.0 0.0 0.00 0.00 0.00 40 1010.1
20260509021301 52 44 0.0 0.0 0.00 0.00 0.00 39 1010.3
20260509020758 52 39 0.0 1.0 0.00 0.00 0.00 38 1010.1
20260509020256 52 41 0.0 0.0 0.00 0.00 0.00 38 1010.0
20260509015753 52 47 0.0 0.0 0.00 0.00 0.00 38 1010.0
20260509015251 52 46 0.0 0.0 0.00 0.00 0.00 38 1009.9
20260509014747 53 47 0.0 0.0 0.00 0.00 0.00 38 1010.0
20260509014245 53 53 0.0 0.0 0.00 0.00 0.00 37 1009.9
20260509013741 53 50 0.0 0.0 0.00 0.00 0.00 38 1009.8
20260509013237 53 48 0.0 0.0 0.00 0.00 0.00 38 1010.0
20260509012734 53 48 0.0 0.0 0.00 0.00 0.00 38 1009.8
20260509012230 53 48 0.0 0.0 0.00 0.00 0.00 37 1010.0
20260509011728 53 53 0.0 1.0 0.00 0.00 0.00 38 1009.9
20260509011225 54 47 0.0 0.0 0.00 0.00 0.00 38 1010.0
20260509010723 54 47 0.0 0.0 0.00 0.00 0.00 38 1010.0
20260509010219 55 47 0.0 0.0 0.00 0.00 0.00 38 1009.8
20260509005717 55 45 0.0 0.0 0.00 0.00 0.00 37 1009.9
20260509005214 56 45 0.0 0.0 0.00 0.00 0.00 37 1009.9
20260509004714 57 44 0.0 0.0 0.00 0.00 0.00 36 1009.9
20260509004212 57 43 0.0 0.0 0.00 0.00 0.00 34 1009.9
20260509003710 58 58 0.0 1.0 0.00 0.00 0.00 34 1009.8
20260509003207 59 46 0.0 0.0 0.00 0.00 0.00 33 1010.0
20260509002704 59 39 0.0 0.0 0.00 0.00 0.00 32 1010.1
20260509002201 59 218 2.0 2.0 0.00 0.00 0.00 30 1010.0
20260509001659 59 4 1.0 1.0 0.00 0.00 0.00 31 1010.1
20260509001155 60 87 1.0 1.0 0.00 0.00 0.00 31 1010.2
20260509000653 60 247 3.0 5.0 0.00 0.00 0.00 30 1010.2
20260509000150 60 206 1.0 2.0 0.00 0.00 0.00 30 1010.3
20260508235647 60 43 0.0 0.0 0.00 0.00 0.00 30 1010.4
20260508235143 60 239 4.0 5.0 0.00 0.00 0.00 29 1010.3
20260508234640 60 217 3.0 5.0 0.00 0.00 0.00 30 1010.5
20260508234136 61 256 2.0 3.0 0.00 0.00 0.00 29 1010.4
20260508233631 60 220 1.0 2.0 0.00 0.00 0.00 29 1010.6
20260508233128 61 269 6.0 8.0 0.00 0.00 0.00 29 1010.7
20260508232625 61 298 3.0 5.0 0.00 0.00 0.00 29 1010.6
20260508232122 61 209 4.0 5.0 0.00 0.00 0.00 29 1010.6
20260508231620 62 235 3.0 3.0 0.00 0.00 0.00 29 1010.6
20260508231116 61 318 3.0 3.0 0.00 0.00 0.00 28 1010.7
20260508230613 62 215 5.0 6.0 0.00 0.00 0.00 28 1010.6
20260508230109 62 339 2.0 2.0 0.00 0.00 0.00 29 1010.7
20260508225607 62 236 2.0 2.0 0.00 0.00 0.00 28 1010.5
20260508225103 62 1 1.0 1.0 0.00 0.00 0.00 28 1010.6
20260508224601 62 2 1.0 1.0 0.00 0.00 0.00 29 1010.5
20260508224058 62 11 2.0 2.0 0.00 0.00 0.00 29 1010.7
20260508223556 62 289 1.0 2.0 0.00 0.00 0.00 28 1010.6
20260508223053 62 347 3.0 3.0 0.00 0.00 0.00 29 1010.7
20260508222550 63 199 4.0 6.0 0.00 0.00 0.00 27 1010.7
20260508222048 62 251 3.0 3.0 0.00 0.00 0.00 28 1010.8
20260508221544 62 292 4.0 5.0 0.00 0.00 0.00 28 1010.8
20260508221039 63 264 2.0 2.0 0.00 0.00 0.00 28 1010.9
20260508220536 63 7 2.0 2.0 0.00 0.00 0.00 28 1010.8
20260508220032 64 308 2.0 2.0 0.00 0.00 0.00 28 1010.8
20260508215530 63 339 2.0 2.0 0.00 0.00 0.00 28 1010.6
20260508215026 64 325 1.0 2.0 0.00 0.00 0.00 27 1010.7
20260508214524 64 223 5.0 7.0 0.00 0.00 0.00 26 1010.9
20260508214020 64 263 2.0 2.0 0.00 0.00 0.00 27 1010.6
20260508213518 64 230 4.0 6.0 0.00 0.00 0.00 26 1011.0
20260508213013 65 291 2.0 3.0 0.00 0.00 0.00 27 1010.9
20260508212510 65 287 1.0 1.0 0.00 0.00 0.00 26 1010.8
20260508212006 65 313 5.0 7.0 0.00 0.00 0.00 28 1011.0
20260508211502 64 351 1.0 1.0 0.00 0.00 0.00 27 1011.0
20260508210958 65 239 4.0 6.0 0.00 0.00 0.00 27 1011.0
20260508210455 65 35 0.0 0.0 0.00 0.00 0.00 28 1011.1
20260508205951 64 263 3.0 3.0 0.00 0.00 0.00 28 1011.0
20260508205449 64 218 3.0 3.0 0.00 0.00 0.00 28 1011.0
20260508204945 64 3 1.0 1.0 0.00 0.00 0.00 27 1011.2
20260508204442 64 332 1.0 2.0 0.00 0.00 0.00 26 1011.4
20260508203937 64 321 2.0 2.0 0.00 0.00 0.00 26 1011.2